Regional Weather Roundup
Issued by NWS

Home | Current Version | Previous Version | Graphics & Text | Print | Product List | Glossary Off
Versions: 1 2 3 4 5 6 7 8 9 10 11 12 13 14 15 16 17 18 19 20 21 22 23 24 25 26 27 28 29 30 31 32 33 34 35 36 37 38 39 40 41 42 43 44 45 46 47 48 49 50

000
ASUS43 KTOP 252259
RWRKS

WEATHER ROUNDUP FOR KANSAS
NATIONAL WEATHER SERVICE GOODLAND KS
600 PM CDT SAT OCT 25 2014

NOTE:  "FAIR" INDICATES FEW OR NO CLOUDS BELOW 12,000 FEET WITH NO
SIGNIFICANT WEATHER AND/OR OBSTRUCTIONS TO VISIBILITY.

KSZ001>006-013>018-027>032-041>047-260000-
NORTHWEST KANSAS

CITY           SKY/WX    TMP DP  RH WIND       PRES   REMARKS
GOODLAND       CLEAR     81  41  24 S15       30.00F
HAYS           CLEAR     82  52  34 S9        29.97F
HILL CITY      CLEAR     85  47  26 SE10      29.96F
RUSSELL        CLEAR     84  51  31 SE9       29.96F
$$

KSZ061>065-074>080-084>089-260000-
SOUTHWEST KANSAS

CITY           SKY/WX    TMP DP  RH WIND       PRES   REMARKS
DODGE CITY     CLEAR     86  42  21 S15       29.99F
ELKHART          N/A     86  39  19 S14         N/A
GARDEN CITY    CLEAR     86  42  21 S12       29.98F
GREAT BEND     CLEAR     82  54  36 S10       29.97F
LIBERAL        CLEAR     88  43  20 S13       30.00F
$$

KSZ066>073-081>083-090>101-260000-
SOUTHEAST KANSAS

CITY           SKY/WX    TMP DP  RH WIND       PRES   REMARKS
CHANUTE        CLEAR     79  65  62 S7        30.01S
COFFEYVILLE    CLEAR     80  65  59 S5        30.00F
HUTCHINSON     CLEAR     84  58  40 S8        29.98F
NEWTON         CLEAR     84  55  37 S7        30.02F
PARSONS        CLEAR     81  65  58 S5        30.02S
WICHITA INTL   CLEAR     85  58  39 S10       29.98F
WICHITA JABRA  CLEAR     84  57  39 S9        29.99F
WICHITA MCCONL CLEAR     85  58  40 S8        30.00F
WINFIELD       CLEAR     81  64  56 S7        30.00F
$$

KSZ007>012-019>026-033>040-048>060-102>105-260000-
NORTHEAST KANSAS

CITY           SKY/WX    TMP DP  RH WIND       PRES   REMARKS
CONCORDIA      CLEAR     79  60  52 E7        29.98F
EMPORIA        CLEAR     81  61  50 S7        29.99F
LAWRENCE       CLEAR     78  58  49 E5        30.00F
MANHATTAN      CLEAR     79  63  57 NE10      29.97F
OLATHE IND     CLEAR     78  57  48 E3        30.02F
OLATHE EXE     CLEAR     77  58  51 MISG      30.01F
SALINA         CLEAR     83  57  41 S6        29.96F
TOPEKA BILLARD CLEAR     78  58  49 E7        30.00F
TOPEKA FORBES  CLEAR     77  62  59 E6        30.00F
$$



USA.gov is the U.S. government's official web portal to all federal, state and local government web resources and services.